Updated20/10/2020 15:10 
 

GeoURL
free counters
Scottish Weather Network UK Weather Network Cumulus Top Weather Sites

Peebles Weather - Skymap

Raw Data, Raw Data Expanded

Ignore low humidity and Dew Point values. Something wrong with the sensor.
Daytime temperatures are in direct sunlight so may be higher than official air temperature values.
As with any other website, we log your IP address and browser type in the server logs for diagnostic reasons. Cookies are used to record visit time and gauges preferences. No personal information is stored or processed.

All times are in local time (GMT, or BST in summer) unless specified.

2020/10/20 13:50 EGPH 201350Z 05008KT 9999 BKN031 BKN046 12/11 Q0993
14.7°C 0.0 mm 1.5 mm 1.5 mm 6.3 mph 9.8 mph 989.2 hPa 63% X-Ray Solar Flare Level
Planetary K-Index
Planetary K-Index History
Station Warn Rain Snow Flood Wind Ltng Heat Cold Glob Moon Temp Rain 1h Rain Tue Rain 24h Wind 10m Gust Pressure Hum Proton Levels

m Waxing Crescent Cool F2-S F: A: Kp:0 SSN:0

SkyMap from Weather Underground


2020 10 20 15 10
Up
Click for Other Views

   
   
Star Chart courtesy: Weather Underground

SkyMap from Fourmilab


 

XHTML 1.1 | CSS